Regional Weather Roundup
Issued by NWS

Home | Current Version | Previous Version | Text Only | Print | Product List | Glossary On
Versions: 1 2 3 4 5 6 7 8 9 10 11 12 13 14 15 16 17 18 19 20 21 22 23 24 25 26 27 28 29 30 31 32 33 34 35 36 37 38 39 40 41 42 43 44 45 46 47 48 49 50
781
ASUS44 KLIX 200601
RWRLA
LOUISIANA WEATHER ROUNDUP
NATIONAL WEATHER SERVICE NEW ORLEANS LA
1200 AM CST SAT DEC 20 2014

NOTE: "FAIR" INDICATES FEW OR NO CLOUDS BELOW 12,000 FEET WITH NO
      SIGNIFICANT WEATHER AND/OR OBSTRUCTIONS TO VISIBILITY.
      SKY/WX - SKY CONDITION AND SIGNIFICANT WEATHER.
      TMP - AIR TEMPERATURE.    DP   - DEWPOINT TEMPERATURE.
      RH  - RELATIVE HUMIDITY.  PRES - PRESSURE.
      HX  - HEAT INDEX.         WCI  - WIND CHILL INDEX.

*  THESE STATIONS ARE NOT NWS OR FAA STATIONS AND ARE NOT UNDER
   NWS QUALITY CONTROL.

LAZ040-048-061>063-065-066-069-200700-
SOUTHEAST LOUISIANA

CITY           SKY/WX    TMP DP  RH WIND       PRES   REMARKS
N.O. AUDUBON     N/A     50  50  99 MISG        N/A
6HR MIN TEMP:  49; 6HR MAX TEMP:  54; 6HR PCP:  0.58;

N.O. INTL ARPT LGT RAIN  51  48  89 NE14      30.08R FOG
6HR MIN TEMP:  50; 6HR MAX TEMP:  52; 6HR PCP:  0.62;

N.O. LAKEFRONT LGT RAIN  52  49  89 NE18      30.08R FOG
6HR MIN TEMP:  52; 6HR MAX TEMP:  53; 6HR PCP:  0.55;

N.O. DOWNTOWN* CLOUDY    48  45  87 N6        30.08R
6HR MIN TEMP:  48; 6HR MAX TEMP:  52; 6HR PCP:  0.60;

SLIDELL        LGT RAIN  49  47  93 N8        30.08F
6HR MIN TEMP:  48; 6HR MAX TEMP:  49; 6HR PCP:  0.29;

BATON ROUGE    LGT RAIN  48  46  93 NE9       30.09S
6HR MIN TEMP:  47; 6HR MAX TEMP:  49; 6HR PCP:  0.28;

BOOTHVILLE     CLOUDY    59  58  96 NE8       30.02F
6HR MIN TEMP:  57; 6HR MAX TEMP:  59; 6HR PCP: TRACE;

BELLE CHASSE   LGT RAIN  50  49  96 N6        30.06F FOG
6HR MIN TEMP:  50; 6HR MAX TEMP:  52; 6HR PCP:  0.26;

BOGALUSA*      HVY RAIN  49  46  89 N5        30.13R
6HR MIN TEMP:  49; 6HR MAX TEMP:  49; 6HR PCP:  0.39;

GALLIANO*      NOT AVBL
NEW ROADS*     NOT AVBL
GONZALES*      NOT AVBL
HAMMOND*       NOT AVBL
HOUMA*         DRIZZLE   50  49  97 NE8       30.05F
6HR MIN TEMP:  50; 6HR MAX TEMP:  54; 6HR PCP:  0.31;

PORT FOURCHON* CLOUDY    57  55  94 NE16G23   30.05F FOG

$$

LAZ041-044-053-054-200700-
SOUTHWEST LOUISIANA

CITY           SKY/WX    TMP DP  RH WIND       PRES   REMARKS
LAKE CHARLES   CLOUDY    50  49  96 MISG      30.10S
6HR MIN TEMP:  50; 6HR MAX TEMP:  55; 6HR PCP:  0.10;

LAFAYETTE      CLOUDY    50  50 100 N13       30.09S
6HR MIN TEMP:  50; 6HR MAX TEMP:  51; 6HR PCP:  0.11;

PATTERSON      CLOUDY    52  48  87 NE9       30.06F
6HR MIN TEMP:  52; 6HR MAX TEMP:  54;

SALT POINT       N/A     55  50  83 VRB5      30.02F
6HR MIN TEMP:  53; 6HR MAX TEMP:  58; 6HR PCP:  0.25;

NEW IBERIA     RAIN      51  49  92 N14       30.09R FOG
6HR MIN TEMP:  51; 6HR MAX TEMP:  52; 6HR PCP:  0.13;

CHENAULT AIRPK CLOUDY    49  48  97 N14G20    30.12R
6HR MIN TEMP:  49; 6HR MAX TEMP:  54; 6HR PCP:  0.05;


$$

LAZ027-028-200700-
CENTRAL LOUISIANA

CITY           SKY/WX    TMP DP  RH WIND       PRES   REMARKS
FORT POLK      CLOUDY    47  46  97 NE7       30.13S
6HR MIN TEMP:  47; 6HR MAX TEMP:  49;

ALEXANDRIA INT CLOUDY    47  46  97 N7        30.14F FOG
6HR MIN TEMP:  47; 6HR MAX TEMP:  48; 6HR PCP: TRACE;

ALEXANDRIA     CLOUDY    47  45  93 VRB6      30.15F
6HR MIN TEMP:  47; 6HR MAX TEMP:  48; 6HR PCP: TRACE;


$$

LAZ001-002-200700-
NORTHWEST LOUISIANA

CITY           SKY/WX    TMP DP  RH WIND       PRES   REMARKS
SHREVEPORT     CLOUDY    47  44  90 E8        30.19F
6HR MIN TEMP:  47; 6HR MAX TEMP:  48; 6HR PCP:  0.01;

BARKSDALE AFB  NOT AVBL
DTN SHREVEPORT CLOUDY    46  42  86 NE6       30.20F
6HR MIN TEMP:  46; 6HR MAX TEMP:  47; 6HR PCP:  0.02;


$$

LAZ014-016-200700-
NORTHEAST LOUISIANA

CITY           SKY/WX    TMP DP  RH WIND       PRES   REMARKS
MONROE         CLOUDY    46  44  93 N8        30.21S
6HR MIN TEMP:  46; 6HR MAX TEMP:  47; 6HR PCP:  0.01;

TALLULAH       LGT RAIN  46  44  93 N7        30.19S FOG
6HR MIN TEMP:  46; 6HR MAX TEMP:  47; 6HR PCP:  0.01;


$$




USA.gov is the U.S. government's official web portal to all federal, state and local government web resources and services.